Regional Weather Roundup
Issued by NWS

Home | Current Version | Previous Version | Text Only | Print | Product List | Glossary Off
Versions: 1 2 3 4 5 6 7 8 9 10 11 12 13 14 15 16 17 18 19 20 21 22 23 24 25 26 27 28 29 30 31 32 33 34 35 36 37 38 39 40 41 42 43 44 45 46 47 48 49 50

000
ASUS43 KMKX 262359
RWRWI

WISCONSIN REGIONAL WEATHER ROUNDUP
NATIONAL WEATHER SERVICE MILWAUKEE/SULLIVAN WI
700 PM CDT THU MAR 26 2015

NOTE: "FAIR" INDICATES FEW OR NO CLOUDS BELOW 12,000 FEET WITH NO
SIGNIFICANT WEATHER AND/OR OBSTRUCTIONS TO VISIBILITY.

WIZ001-002-006>008-014>016-023>028-270100-
NORTHWEST WISCONSIN

CITY           SKY/WX    TMP DP  RH WIND       PRES   REMARKS
SUPERIOR ARPT  CLEAR     30   2  30 N12G17    30.15R WCI  20
ASHLAND        CLEAR     25   7  46 NE12      30.15R WCI  14
6HR MIN TEMP:  25; 6HR MAX TEMP:  31;

HAYWARD        PTCLDY    27   3  35 N12       30.10R WCI  17
6HR MIN TEMP:  26; 6HR MAX TEMP:  31;

SIREN          CLEAR     31   1  27 N14       30.11R WCI  21
CUMBERLAND     CLEAR     30   3  31 N14       30.07S WCI  20
RICE LAKE      PTCLDY    32   7  35 N13G18    30.09R WCI  22
CHETEK         CLEAR     30  10  42 N10       30.08R WCI  21
LADYSMITH      PTCLDY    29   8  41 N13       30.08S WCI  19
EAU CLAIRE     NOT AVBL
MENOMONIE      CLOUDY    34  12  39 N10G17    30.08S WCI  26
NEW RICHMOND   PTCLDY    33   6  32 N15G24    30.10R WCI  22
OSCEOLA        CLEAR     33   5  31 N12       30.13S WCI  25
$$

WIZ003>005-009-010-017-018-270100-
NORTH CENTRAL WISCONSIN

CITY           SKY/WX    TMP DP  RH WIND       PRES   REMARKS
MANITOWISH WTR PTCLDY    19   2  47 N13G18    30.06S WCI   7
ARBOR VITAE    PTCLDY    20   6  55 N13       30.06R WCI   7
WOODRUFF       PTCLDY    20   6  55 N13       30.06R WCI   7
RHINELANDER    CLOUDY    20   8  60 N10G18    30.05R WCI   9
6HR MIN TEMP:  20; 6HR MAX TEMP:  25; 6HR PCP: TRACE;

EAGLE RIVER    FLURRIES  19   8  61 N14       30.04R WCI   5
LAND O LAKES   CLOUDY    18  10  70 N10       30.07R WCI   6
PHILLIPS       PTCLDY    23   8  52 N9        30.06R WCI  13
TOMAHAWK       MOCLDY    22   8  54 N6G21     30.06R WCI  15
MEDFORD        CLOUDY    25  11  55 N10       30.04S WCI  15
MERRILL        CLOUDY    25  11  55 N13       30.05R WCI  13
$$

WIZ029-030-035-036-043>047-270100-
CENTRAL WISCONSIN

CITY           SKY/WX    TMP DP  RH WIND       PRES   REMARKS
WAUSAU         CLOUDY    25  11  55 N14G22    30.04R WCI  13
6HR MIN TEMP:  25; 6HR MAX TEMP:  30;

MOSINEE        CLOUDY    27  12  54 N15       30.06R WCI  15
MARSHFIELD     CLOUDY    28  15  58 N12       30.05R WCI  18
6HR MIN TEMP:  28; 6HR MAX TEMP:  32;

STEVENS POINT  CLOUDY    27  12  53 N8        30.05R WCI  18
WAUPACA        CLOUDY    32  14  47 N14       30.05R WCI  22
WAUTOMA        NOT AVBL
WISC RAPIDS    CLOUDY    29  12  49 N10       30.07R WCI  20
6HR MIN TEMP:  29; 6HR MAX TEMP:  33;

CAMP DOUGLAS   MOCLDY    32  19  59 N12       30.06R WCI  23
$$

WIZ011>013-019>022-031-037>040-048>050-270100-
NORTHEAST WISCONSIN

CITY           SKY/WX    TMP DP  RH WIND       PRES   REMARKS
ANTIGO         CLOUDY    22  12  64 N12       30.03R WCI  11
SHAWANO        CLOUDY    31  15  51 N13       30.05R WCI  21
OCONTO         CLOUDY    28  15  57 N7        30.05R WCI  21
STURGEON BAY   CLOUDY    27  10  50 N16       30.07R WCI  14
6HR MIN TEMP:  27; 6HR MAX TEMP:  30;

GREEN BAY      CLOUDY    31  17  56 N12       30.04R WCI  22
6HR MIN TEMP:  31; 6HR MAX TEMP:  34;

MANITOWOC      NOT AVBL
APPLETON       CLOUDY    30  12  47 N13       30.04R WCI  20
CLINTONVILLE   CLOUDY    30  14  51 N10G17    30.04R WCI  21
OSHKOSH        CLOUDY    31  15  52 N14       30.03R WCI  21
6HR MIN TEMP:  31; 6HR MAX TEMP:  34;

$$

WIZ032>034-041-042-053>061-270100-
SOUTHWEST WISCONSIN

CITY           SKY/WX    TMP DP  RH WIND       PRES   REMARKS
LA CROSSE      CLOUDY    35  19  52 N9        30.08R WCI  28
6HR MIN TEMP:  35; 6HR MAX TEMP:  38;

SPARTA         CLOUDY    32  15  50 N7G20     30.08R WCI  26
VIROQUA        CLOUDY    32  20  60 NW8       30.04R WCI  25
BOSCOBEL       CLOUDY    35  19  52 NW8       30.07R WCI  29
6HR MIN TEMP:  35; 6HR MAX TEMP:  36;

PRAIRIE DU CHI MOCLDY    34  18  52 NW12      30.07R WCI  26
PLATTEVILLE    CLOUDY    33  22  63 NW13      30.04R WCI  24
$$

WIZ056-057-062-063-064-067-068-270100-
SOUTH CENTRAL WISCONSIN

CITY           SKY/WX    TMP DP  RH WIND       PRES   REMARKS
REEDSBURG      CLOUDY    33  17  51 NW10G18   30.04R WCI  25
BARABOO/DELLS  CLOUDY    32  17  52 N8        30.03R WCI  25
LONE ROCK      NOT AVBL
MINERAL POINT  CLOUDY    34  19  55 NW8       30.02S WCI  27
MADISON        MOCLDY    34  18  52 N10       30.03R WCI  26
6HR MIN TEMP:  34; 6HR MAX TEMP:  37;

MIDDLETON      CLOUDY    36  19  50 NW12      30.03R WCI  27
WATERTOWN      CLOUDY    31  18  57 N12G17    30.03R WCI  22
MONROE         CLOUDY    34  23  64 NW6       30.01S WCI  29
JANESVILLE     CLOUDY    36  21  55 NW8       30.01S WCI  29
$$

WIZ051-052-058>065-066-070>072-270100-
SOUTHEAST WISCONSIN

CITY           SKY/WX    TMP DP  RH WIND       PRES   REMARKS
MILWAUKEE      CLOUDY    34  16  47 NW12      30.02R WCI  25
6HR MIN TEMP:  34; 6HR MAX TEMP:  38;

WAUKESHA       CLOUDY    30  18  59 NW14      30.03R WCI  20
MILWAUKEE/TIMM CLOUDY    32  18  55 N13       30.03R WCI  22
RACINE         CLOUDY    34  19  54 N10       30.03R WCI  26
6HR MIN TEMP:  34; 6HR MAX TEMP:  39;

BURLINGTON     CLOUDY    33  20  60 N13       30.01R WCI  23
KENOSHA        CLOUDY    35  22  58 N9        30.01R WCI  28
6HR MIN TEMP:  35; 6HR MAX TEMP:  40;

FOND DU LAC    CLOUDY    31  16  54 N13       30.04R WCI  21
6HR MIN TEMP:  31; 6HR MAX TEMP:  35;

SHEBOYGAN      CLOUDY    31  20  63 N10       30.03R WCI  22
6HR MIN TEMP:  31; 6HR MAX TEMP:  34;

WEST BEND      CLOUDY    30  18  59 NW9       30.03R WCI  22
JUNEAU         CLOUDY    30  17  57 N14       30.04R WCI  19
$$

LSZ147-162-270100-
LAKE SUPERIOR

STATION/POSITION TIME  TEMP    WIND        PRES    WAVE
                       AIR SEA DIR/SP/G            HT/PER
                 (UTC) (F)     (DEG/KT/KT) (MB)    (FT/S)
DEVILS ISLAND    2300   26      10/ 17/ 19 1021.8R
PORT WING        2340   28      30/  5/  7 1021.3R
SAXON HARBOR     2300   25      20/  8/ 10 1020.7
$$

LMZ867-665-643>646-270100-
LAKE MICHIGAN

STATION/POSITION TIME  TEMP    WIND        PRES    WAVE
                       AIR SEA DIR/SP/G            HT/PER
                 (UTC) (F)     (DEG/KT/KT) (MB)    (FT/S)
NORTHPORT PIER   2307   24     350/ 19     1017.3R
SISTER BAY       2347   24     360/ 21/ 26   N/A
KEWAUNEE LAKESHO 2300   30     360/  9/ 15 1015.7R
SHEBOYGAN LAKESH 2300   32     310/ 12/ 15 1017.2R
PORT WASHINGTON  2340   33     330/  6/ 11 1017.6R
MILWAUKEE LAKESH 2300   34     340/ 11/ 15   N/A
KENOSHA   LAKESH 2300   36     320/ 11/ 13 1016.3R
$$

TC  - TEMPERATURE IN CELSIUS
VSB - VISIBILITY IN STATUTE MILES
WCI - WIND CHILL INDEX
HX  - HEAT INDEX




USA.gov is the U.S. government's official web portal to all federal, state and local government web resources and services.